Flag for U.S.A. Weather past 2 weeks in Roanoke, Virginia, U.S.A.

Now
33 °F

Mostly cloudy.


Feels Like: 29 °F
Forecast: 31 / 42 °F
Wind: 5 mph from Southeast

Location: Roanoke Regional Airport

Current Time: Dec 20, 2014 at 11:51:37 AM

Latest Report: Dec 20, 2014 at 10:54 AM


Visibility: 10 mi

Pressure: 30.32 "Hg

Humidity: 70%

Dew point: 24 °F

Location of RoanokeLocation

Historic Weather in Roanoke — Graph

°F

Roanoke temperature yesterday

Maximum temperature yesterday: 46 °F (at 1:54 PM)
Minimum temperature yesterday: 32 °F (at 7:54 AM)
Average temperature yesterday: 38 °F

Past Weeks' High & Low Weather Summary

 TemperatureHumidityPressure
High58 °F (Dec 16, 3:54 PM)97% (Dec 6, 6:54 PM)30.54 "Hg (Dec 6, 6:54 PM)
Low29 °F (Dec 20, 3:54 AM)19% (Dec 12, 11:54 AM)29.84 "Hg (Dec 16, 1:54 PM)
Average41 °F60%30.16 "Hg
* Reported Dec 5 10:54 AM — Dec 20 10:54 AM, Roanoke, Weather by CustomWeather, © 2014

Note: Actual official high and low records may vary slightly from our data, if they occured in-between our weather recording intervals... More about our weather records

Advertising

Roanoke weather history for previous 24 hours

 ConditionsComfort  
Time TempWeatherWind HumidityBarometerVisibility
10:54 AM
Dec 20
33 °FMostly cloudy.5 mph70%30.32 "Hg10 mi
9:54 AM33 °FOvercast.7 mph70%30.32 "Hg10 mi
8:54 AM32 °FCloudy.5 mph69%30.31 "Hg10 mi
7:54 AM31 °FOvercast.5 mph73%30.30 "Hg10 mi
6:54 AM31 °FOvercast.3 mph73%30.29 "Hg10 mi
5:54 AM31 °FOvercast.3 mph73%30.27 "Hg10 mi
4:54 AM30 °FClear.3 mph75%30.27 "Hg10 mi
3:54 AM29 °FClear.No wind75%30.27 "Hg10 mi
2:54 AM32 °FClear.3 mph64%30.25 "Hg10 mi
1:54 AM32 °FClear.No wind66%30.26 "Hg10 mi
12:54 AM32 °FClear.7 mph66%30.25 "Hg10 mi
11:54 PM
Dec 19
33 °FClear.10 mph63%30.24 "Hg10 mi
10:54 PM32 °FPassing clouds.8 mph66%30.23 "Hg10 mi
9:54 PM33 °FPassing clouds.9 mph63%30.25 "Hg10 mi
8:54 PM35 °FPassing clouds.8 mph59%30.25 "Hg10 mi
7:54 PM37 °FPassing clouds.9 mph54%30.22 "Hg10 mi
6:54 PM39 °FPartly cloudy.No wind50%30.21 "Hg10 mi
5:54 PM39 °FPartly cloudy.9 mph53%30.20 "Hg10 mi
4:54 PM40 °FPartly sunny.6 mph53%30.16 "Hg10 mi
3:54 PM45 °FMostly cloudy.6 mph44%30.15 "Hg10 mi
2:54 PM46 °FPartly sunny.8 mph42%30.14 "Hg10 mi
1:54 PM46 °FPassing clouds.7 mph40%30.14 "Hg10 mi
12:54 PM44 °FPassing clouds.7 mph43%30.14 "Hg10 mi
11:54 AM43 °FPassing clouds.14 mph43%30.16 "Hg10 mi
Weather by CustomWeather, © 2014

See weather overviewHow to use our weather pages